Regional Weather Roundup
Issued by NWS

Home | Current Version | Previous Version | Text Only | Print | Product List | Glossary On
Versions: 1 2 3 4 5 6 7 8 9 10 11 12 13 14 15 16 17 18 19 20 21 22 23 24 25 26 27 28 29 30 31 32 33 34 35 36 37 38 39 40 41 42 43 44 45 46 47 48 49 50
000
ASUS43 KOAX 150410
RWRNE

WEATHER ROUNDUP FOR NEBRASKA
NATIONAL WEATHER SERVICE OMAHA NE
1000 PM CST THU DEC 14 2017

NOTES: SATELLITE DATA IS BEING USED TO AUGMENT CLOUD COVER ABOVE
       12000 FEET.
       "FAIR" INDICATES FEW OR NO CLOUDS BELOW 12,000 FEET WITH NO
       SIGNIFICANT WEATHER AND/OR OBSTRUCTIONS TO VISIBILITY.


NEZ001>004-019>022-054>056-150500-
NEBRASKA PANHANDLE

CITY           SKY/WX    TMP DP  RH WIND       PRES   REMARKS
SCOTTSBLUFF    CLOUDY    15  12  88 CALM      30.20F
ALLIANCE       CLOUDY    10   9  95 W10       30.17F WCI  -4
CHADRON        CLEAR     16  13  88 SW8       30.18F WCI   5
GORDON         FAIR      19  16  87 W6        30.15F WCI  11
KIMBALL        CLOUDY    15  11  85 SW9       30.19F WCI   3
SIDNEY         CLOUDY    12  10  92 W8        30.20F WCI   0
$$

NEZ057>060-069>072-079>082-150500-
SOUTHWEST NEBRASKA

CITY           SKY/WX    TMP DP  RH WIND       PRES   REMARKS
NORTH PLATTE   CLOUDY    31  24  75 W9        30.20F WCI  23
IMPERIAL       CLEAR     27  21  78 W6        30.23S WCI  20
LEXINGTON      CLOUDY    31  27  85 NW3       30.21S
MCCOOK         CLEAR     28  22  78 NW10      30.23S WCI  19
OGALLALA       CLEAR     22  18  85 NW6       30.21F WCI  15
$$

NEZ005>010-023>029-035>040-094-150500-
NORTH CENTRAL NEBRASKA

CITY           SKY/WX    TMP DP  RH WIND       PRES   REMARKS
VALENTINE      CLOUDY    32  28  85 W7        30.16F WCI  26
AINSWORTH      CLOUDY    30  28  92 W7        30.15F WCI  23
BROKEN BOW     CLOUDY    31  24  75 N8        30.18F WCI  23
O`NEILL        CLOUDY    31  28  88 NW5       30.15F WCI  26
ORD            PTCLDY    30  22  72 NW12      30.17S WCI  20
THEDFORD       CLOUDY    28  26  91 W6        30.18F WCI  22
$$

NEZ041-046>049-061>064-073>077-083>087-150500-
SOUTH CENTRAL NEBRASKA

CITY           SKY/WX    TMP DP  RH WIND       PRES   REMARKS
GRAND ISLAND   MOCLDY    32  30  92 NW14      30.18F WCI  22
AURORA         MOCLDY    32  31  94 NW9       30.17S WCI  24
HASTINGS       CLOUDY    33  29  85 NW14      30.18F WCI  23
HEBRON         CLOUDY    37  33  84 NW9       30.18S WCI  30
HOLDREGE       CLOUDY    33  29  86 NW10      30.20S WCI  25
KEARNEY        CLOUDY    33  28  81 NW9       30.20S WCI  25
YORK           CLEAR     32  32 100 NW10      30.16S WCI  24
$$

NEZ011>018-030>034-042>045-150500-
NORTHEAST NEBRASKA

CITY           SKY/WX    TMP DP  RH WIND       PRES   REMARKS
NORFOLK        CLOUDY    32  28  85 NW13      30.14R WCI  22
ALBION         CLOUDY    33  31  92 NW7       30.16S WCI  27
BLAIR          CLOUDY    37  28  70 NW12      30.11S WCI  29
COLUMBUS       CLOUDY    33  30  88 NW10      30.16S WCI  25
FREMONT        CLOUDY    35  29  79 NW9       30.13F WCI  27
TEKAMAH        PTCLDY    33  25  72 NW10      30.12S WCI  25
WAYNE          CLOUDY    32  29  90 NW10      30.14R WCI  24
$$

NEZ050>053-065>068-078-088>093-150500-
SOUTHEAST NEBRASKA

CITY           SKY/WX    TMP DP  RH WIND       PRES   REMARKS
LINCOLN        CLOUDY    37  32  82 NW13      30.16S WCI  29
OMAHA EPPLEY   CLOUDY    38  26  62 NW14      30.12S WCI  30
BEATRICE       CLOUDY    37  34  90 NW12      30.15S WCI  29
FALLS CITY     CLOUDY    35  29  78 W7        30.14R WCI  29
NEBRASKA CITY  CLOUDY    36  32  86 NW7       30.13S WCI  31
PLATTSMOUTH    CLOUDY    37  30  75 NW13      30.12F WCI  29
$$

NEZ044-045-051>053-067-150500-
OMAHA AREA

CITY           SKY/WX    TMP DP  RH WIND       PRES   REMARKS
OMAHA EPPLEY   CLOUDY    38  26  62 NW14      30.12S WCI  30
BLAIR          CLOUDY    37  28  70 NW12      30.11S WCI  29
FREMONT        CLOUDY    35  29  79 NW9       30.13F WCI  27
MILLARD        CLOUDY    39  29  67 NW14G20   30.13S WCI  31
OFFUTT AFB     CLOUDY    38  27  63 NW14G22   30.12R WCI  30
PLATTSMOUTH    CLOUDY    37  30  75 NW13      30.12F WCI  29
WAHOO          CLOUDY    37  28  71 NW10      30.14R WCI  29
$$




USA.gov is the U.S. government's official web portal to all federal, state and local government web resources and services.